Weather in Mogilevo

Russia / Pskov Oblast     57°35′14″N   29°35′29″E
temp.,
°C
wind,
m/s
gust,
m/s
humid.,
%
clouds,
%
prec.,
mm/h
press.,
hPa
HPBL,
m
1 august, sun
sun100:00+14ssw369099 0.0 1006110
03:00+15ssw3108499 0.0 1005210
06:00+16s398547 0.0 1004232
09:00+19sw487613 0.3 1004503
12:00+24wsw59413 0.1 10042247
15:00+25sw5103971 0.1 10032682
18:00+25wsw5944100 0.0 10042429
21:00+19wsw2765100 0.0 1006171
2 august, mon
mon200:00+16sw3973100 0.0 1006225
03:00+16sw2780100 0.0 1006196
06:00+15wnw2597100 0.8 1006205
09:00+15ene2496100 1.6 1004222
12:00+14ne3899100 6.2 1002396
15:00+14n3799100 23.5 1000347
18:00+14wnw3799100 1.3 1000471
21:00+14wnw3899100 1.6 1002498
3 august, tue
tue300:00+14wsw3899100 0.0 1003336
03:00+13wsw3998100 0.0 1003313
06:00+12wsw399822 0.0 1004307
09:00+15wsw4886100 0.0 1005568
12:00+19w575714 0.3 10061563
15:00+18w577014 0.6 10071149
18:00+18wnw47685 1.0 10081044
21:00+13w237810 1.0 101056
4 august, wed
wed400:00+13w267679 0.0 1012166
03:00+10w25861 0.0 101486
06:00+9wsw24845 0.0 101571
09:00+16wsw24595 0.0 1015461
12:00+19w344867 0.0 10161665
15:00+20w244597 0.0 10161883
18:00+15e1175100 0.1 101615
21:00+14se2279100 0.1 101627
5 august, thu
thu500:00+14ssw2483100 0.1 101692
03:00+13w1297100 1.1 101747
06:00+12ese2398100 1.0 101787
09:00+14sse239387 1.1 1017369
12:00+18s127456 0.3 1016815
15:00+20se116628 1.4 10151084
18:00+20e22706 0.7 1015773
21:00+15e249355 1.1 101570